This demonstration page uses our WeatherBlox Daily Observations layout. Learn more.

Hourly Observations for October 27, 2015

Temp ( °F °C ) Dew Point ( °F °C ) Humidity (%) Winds ( mph kmh ) Pressure ( in mb ) Visibility ( mi km ) Precip ( " mm )
12:15 am 00:15 Partly Cloudy 46 8 34 1 62 62 SE 10 17 30.06 1018 10 16.09344 0 0
12:35 am 00:35 Partly Cloudy 46 8 34 1 62 62 SE 10 17 30.06 1018 10 16.09344 0 0
12:55 am 00:55 Mostly Cloudy 46 8 34 1 62 62 SE 9 15 30.06 1018 10 16.09344 0 0
1:15 am 01:15 Cloudy 46 8 34 1 62 62 SE 10 17 30.03 1017 10 16.09344 0 0
1:35 am 01:35 Cloudy 46 8 34 1 62 62 SSE 7 11 30.03 1017 10 16.09344 0 0
1:55 am 01:55 Cloudy 46 8 34 1 62 62 SSE 8 13 30.03 1017 10 16.09344 0 0
2:15 am 02:15 Cloudy 46 8 34 1 62 62 SSE 9 15 30.03 1017 10 16.09344 0 0
2:35 am 02:35 Cloudy 46 8 34 1 62 62 SE 8 13 30.03 1017 10 16.09344 0 0
2:55 am 02:55 Cloudy 46 8 34 1 62 62 SE 7 11 30.03 1017 10 16.09344 0 0
3:15 am 03:15 Cloudy 46 8 36 2 66 66 SE 9 15 30.03 1017 10 16.09344 0 0
3:35 am 03:35 Cloudy 46 8 36 2 66 66 SE 8 13 30 1016 10 16.09344 0 0
3:55 am 03:55 Cloudy 46 8 36 2 66 66 SSE 9 15 30 1016 10 16.09344 0 0
4:15 am 04:15 Cloudy 46 8 34 1 62 62 SSE 9 15 30 1016 10 16.09344 0 0
4:35 am 04:35 Cloudy 46 8 34 1 62 62 SSE 8 13 30 1016 10 16.09344 0 0
4:55 am 04:55 Mostly Cloudy 46 8 34 1 62 62 S 6 9 30 1016 10 16.09344 0 0
5:15 am 05:15 Cloudy with Light Rain 46 8 36 2 66 66 S 3 6 30 1016 10 16.09344 0 0
5:35 am 05:35 Cloudy with Light Rain 46 8 37 3 71 71 S 6 9 30 1016 10 16.09344 0 0
5:55 am 05:55 Cloudy with Light Rain 45 7 39 4 81 81 S 3 6 29.97 1015 10 16.09344 0 0
6:15 am 06:15 Cloudy with Light Rain 45 7 39 4 81 81 S 5 7 29.97 1015 10 16.09344 0 0
6:35 am 06:35 Cloudy with Light Rain 45 7 39 4 81 81 S 3 6 29.97 1015 10 16.09344 0.01 0.254
6:55 am 06:55 Cloudy with Light Rain 45 7 41 5 87 87 SSE 5 7 29.97 1015 10 16.09344 0.01 0.254
7:15 am 07:15 Cloudy with Drizzle 45 7 39 4 81 81 SSE 6 9 29.97 1015 10 16.09344 0 0
7:35 am 07:35 Cloudy with Light Rain 45 7 39 4 81 81 SE 6 9 29.97 1015 10 16.09344 0 0
7:55 am 07:55 Cloudy 45 7 39 4 81 81 SE 3 6 29.97 1015 10 16.09344 0 0
8:15 am 08:15 Cloudy with Rain 45 7 41 5 87 87 SE 6 9 29.97 1015 10 16.09344 0.01 0.254
8:35 am 08:35 Cloudy with Rain 43 6 41 5 93 93 SSE 6 9 29.97 1015 7 11.265408 0.03 0.762
8:55 am 08:55 Cloudy with Light Rain 43 6 41 5 93 93 Calm 29.97 1015 10 16.09344 0.04 1.016
9:15 am 09:15 Cloudy with Rain 43 6 41 5 93 93 Calm 29.97 1015 7 11.265408 0.02 0.508
9:35 am 09:35 Cloudy with Light Rain 43 6 41 5 93 93 ESE 3 6 29.97 1015 10 16.09344 0.04 1.016
9:55 am 09:55 Cloudy with Light Drizzle 43 6 41 5 93 93 ESE 5 7 29.97 1015 10 16.09344 0.04 1.016
10:15 am 10:15 Cloudy with Light Rain 45 7 41 5 87 87 ESE 7 11 29.94 1014 10 16.09344 0 0
10:35 am 10:35 Cloudy with Light Drizzle 45 7 41 5 87 87 SE 8 13 29.94 1014 10 16.09344 0 0
10:55 am 10:55 Cloudy with Light Drizzle 45 7 41 5 87 87 ESE 3 6 29.94 1014 10 16.09344 0 0
11:15 am 11:15 Cloudy 45 7 41 5 87 87 SE 5 7 29.94 1014 10 16.09344 0 0
11:35 am 11:35 Cloudy 45 7 43 6 93 93 SE 8 13 29.91 1013 10 16.09344 0 0
11:55 am 11:55 Cloudy 46 8 43 6 87 87 SSE 7 11 29.91 1013 10 16.09344 0 0
12:15 pm 12:15 Mostly Cloudy 48 9 45 7 87 87 SSE 7 11 29.88 1012 10 16.09344 0 0
12:35 pm 12:35 Partly Cloudy 48 9 45 7 87 87 S 5 7 29.88 1012 10 16.09344 0 0
12:55 pm 12:55 Sunny 54 12 48 9 82 82 S 8 13 29.83 1010 10 16.09344 0 0
1:15 pm 13:15 Sunny 54 12 48 9 82 82 S 9 15 29.8 1009 10 16.09344 0 0
1:35 pm 13:35 Sunny 54 12 48 9 82 82 SSE 9 15 29.77 1008 10 16.09344 0 0
1:55 pm 13:55 Sunny 59 15 46 8 63 63 S 8 13 29.74 1007 10 16.09344 0 0
2:15 pm 14:15 Sunny 59 15 45 7 59 59 S 10 17 29.74 1007 10 16.09344 0 0
2:35 pm 14:35 Sunny 59 15 43 6 55 55 SSW 10 17 29.74 1007 10 16.09344 0 0
2:55 pm 14:55 Sunny 61 16 43 6 52 52 SSW 10 17 29.74 1007 10 16.09344 0 0
3:15 pm 15:15 Sunny 61 16 41 5 48 48 SSW 9 15 29.74 1007 10 16.09344 0 0
3:35 pm 15:35 Sunny 63 17 39 4 42 42 SSW 7 11 29.74 1007 10 16.09344 0 0
3:55 pm 15:55 Sunny 63 17 43 6 49 49 SSW 6 9 29.74 1007 10 16.09344 0 0
4:15 pm 16:15 Sunny 63 17 45 7 52 52 SSW 5 7 29.74 1007 10 16.09344 0 0
4:35 pm 16:35 Sunny 63 17 46 8 56 56 SW 6 9 29.74 1007 10 16.09344 0 0
4:55 pm 16:55 Sunny 63 17 45 7 52 52 SW 6 9 29.71 1006 10 16.09344 0 0
5:15 pm 17:15 Sunny 63 17 45 7 52 52 SSW 8 13 29.71 1006 10 16.09344 0 0
5:35 pm 17:35 Sunny 61 16 45 7 55 55 SW 6 9 29.74 1007 10 16.09344 0 0
5:55 pm 17:55 Sunny 59 15 46 8 63 63 SW 3 6 29.74 1007 10 16.09344 0 0
6:15 pm 18:15 Sunny 59 15 45 7 59 59 SSW 5 7 29.74 1007 10 16.09344 0 0
6:35 pm 18:35 Sunny 57 14 45 7 63 63 S 3 6 29.74 1007 10 16.09344 0 0
6:55 pm 18:55 Clear 54 12 45 7 72 72 SSE 5 7 29.77 1008 10 16.09344 0 0
7:15 pm 19:15 Clear 54 12 45 7 72 72 S 5 7 29.77 1008 10 16.09344 0 0
7:35 pm 19:35 Clear 52 11 43 6 72 72 S 3 6 29.77 1008 10 16.09344 0 0
7:55 pm 19:55 Clear 52 11 43 6 72 72 S 5 7 29.77 1008 10 16.09344 0 0
8:15 pm 20:15 Clear 50 10 43 6 76 76 S 5 7 29.8 1009 10 16.09344 0 0
8:35 pm 20:35 Clear 50 10 43 6 76 76 Calm 29.8 1009 10 16.09344 0 0
8:55 pm 20:55 Clear 48 9 43 6 82 82 Calm 29.8 1009 10 16.09344 0 0
9:15 pm 21:15 Clear 45 7 41 5 87 87 Calm 29.83 1010 10 16.09344 0 0
9:35 pm 21:35 Clear 43 6 39 4 87 87 E 3 6 29.83 1010 10 16.09344 0 0
9:55 pm 21:55 Clear 46 8 45 7 93 93 Calm 29.8 1009 10 16.09344 0 0
10:15 pm 22:15 Clear 45 7 41 5 87 87 NW 7 11 29.83 1010 10 16.09344 0 0
10:35 pm 22:35 Clear 46 8 43 6 87 87 N 13 20 29.83 1010 10 16.09344 0 0
10:55 pm 22:55 Clear 46 8 43 6 87 87 N 18 30 29.83 1010 10 16.09344 0 0
11:15 pm 23:15 Clear 46 8 43 6 87 87 N 18 30 29.85 1011 10 16.09344 0 0
11:35 pm 23:35 Clear 46 8 43 6 87 87 N 17 28 29.85 1011 10 16.09344 0 0
11:55 pm 23:55 Mostly Cloudy 48 9 43 6 82 82 NNW 15 24 29.88 1012 10 16.09344 0 0

Powered by AerisWeather